This demonstration page uses our WeatherBlox Daily Observations layout. Learn more.

Left ArrowRight Arrow

38.20091, -84.87328

Hourly Observations for January 11, 2016

Temp ( °F °C ) Dew Point ( °F °C ) Humidity (%) Winds ( mph kmh ) Pressure ( in mb ) Visibility ( mi km ) Precip ( " mm )
12:53 am 00:53 Clear 11 -11.7 6 -14.4 81 81 SW 8 13 30.22 1024 10 16 0.00 0.00
1:53 am 01:53 Clear 11 -11.7 7 -13.9 84 84 SW 8 13 30.22 1023 10 16 0.00 0.00
2:53 am 02:53 Clear 11 -11.7 6 -14.4 81 81 SW 7 11 30.22 1023 10 16 0.00 0.00
3:53 am 03:53 Clear 11 -11.7 6 -14.4 81 81 SW 7 11 30.22 1024 10 16 0.00 0.00
4:53 am 04:53 Clear 10 -12.2 6 -14.4 84 84 SW 7 11 30.23 1024 10 16 0.00 0.00
5:53 am 05:53 Clear 10 -12.2 6 -14.4 84 84 SW 6 9 30.24 1024 10 16 0.00 0.00
6:53 am 06:53 Clear 9 -12.8 5 -15 84 84 SW 6 9 30.25 1025 10 16 0.00 0.00
7:53 am 07:53 Clear 9 -12.8 5 -15 84 84 SSW 3 6 30.26 1025 10 16 0.00 0.00
8:53 am 08:53 Mostly Cloudy 12 -11.1 8 -13.3 84 84 SW 6 9 30.26 1025 10 16 0.00 0.00
9:53 am 09:53 Mostly Sunny 15 -9.4 9 -12.8 77 77 SW 8 13 30.27 1025 10 16 0.00 0.00
10:53 am 10:53 Cloudy 17 -8.3 9 -12.8 70 70 SW 8 13 30.27 1025 10 16 0.00 0.00
11:53 am 11:53 Cloudy 20 -6.7 11 -11.7 68 68 SW 10 17 30.24 1024 10 16 0.00 0.00
12:53 pm 12:53 Cloudy 23 -5 11 -11.7 60 60 SW 8 13 30.19 1022 10 16 0.00 0.00
1:53 pm 13:53 Cloudy 26 -3.3 12 -11.1 55 55 S 9 15 30.15 1021 10 16 0.00 0.00
2:53 pm 14:53 Partly Cloudy 29 -1.7 14 -10 54 54 SSW 8 13 30.12 1020 10 16 0.00 0.00
3:53 pm 15:53 Cloudy 29 -1.7 13 -10.6 51 51 S 12 19 30.11 1020 10 16 0.00 0.00
4:53 pm 16:53 Cloudy 29 -1.7 14 -10 54 54 S 13 20 30.09 1019 10 16 0.00 0.00
5:53 pm 17:53 Mostly Clear 28 -2.2 13 -10.6 53 53 S 9 15 30.07 1018 10 16 0.00 0.00
6:53 pm 18:53 Mostly Cloudy 27 -2.8 14 -10 58 58 S 7 11 30.06 1018 10 16 0.00 0.00
7:53 pm 19:53 Mostly Cloudy 28 -2.2 15 -9.4 58 58 S 8 13 30.04 1017 10 16 0.00 0.00
8:53 pm 20:53 Mostly Cloudy 29 -1.7 14 -10 54 54 S 14 22 30.02 1017 10 16 0.00 0.00
9:53 pm 21:53 Mostly Cloudy 30 -1.1 14 -10 51 51 SSW 13 20 30.00 1016 10 16 0.00 0.00
10:53 pm 22:53 Cloudy 32 0 14 -10 47 47 SSW 14 22 29.99 1016 10 16 0.00 0.00
11:53 pm 23:53 Cloudy 32 0 15 -9.4 50 50 SSW 15 24 29.97 1015 10 16 0.00 0.00

Powered by AerisWeather